iso_date,epoch_date,Year,Hour,Min,DOY,POS_DOY,Lat,Lon,BP,Ts,Ta,has_bp,has_ts,has_ta,BuoyID,Buoy_Type,Buoy_Owner,Logistics,Hemisphere
2017-03-24T22:59:31Z,1490396371,2017,23,0,83.958,83.958,83.7476,-52.0286,-999.00,-31.0,-999.0,no,yes,no,300234064139650,CALIB,AWI-USIABP,unknown,North
2017-03-25T00:00:00Z,1490400000,2017,0,0,84.0,84.0,83.7476,-52.0286,-999.00,-33.0,-999.0,no,yes,no,300234064139650,CALIB,AWI-USIABP,unknown,North
2017-03-25T01:00:28Z,1490403629,2017,1,0,84.042,84.042,83.7476,-52.0288,-999.00,-33.8,-999.0,no,yes,no,300234064139650,CALIB,AWI-USIABP,unknown,North
2017-03-25T01:59:31Z,1490407171,2017,2,0,84.083,84.083,83.7476,-52.0288,-999.00,-34.7,-999.0,no,yes,no,300234064139650,CALIB,AWI-USIABP,unknown,North
2017-03-25T03:00:00Z,1490410800,2017,3,0,84.125,84.125,83.7476,-52.0288,-999.00,-35.0,-999.0,no,yes,no,300234064139650,CALIB,AWI-USIABP,unknown,North
2017-03-25T04:00:28Z,1490414429,2017,4,0,84.167,84.167,83.7476,-52.0288,-999.00,-36.2,-999.0,no,yes,no,300234064139650,CALIB,AWI-USIABP,unknown,North
2017-03-25T04:59:31Z,1490417971,2017,5,0,84.208,84.208,83.7476,-52.0288,-999.00,-36.0,-999.0,no,yes,no,300234064139650,CALIB,AWI-USIABP,unknown,North
2017-03-25T06:00:00Z,1490421600,2017,6,0,84.25,84.25,83.7476,-52.0288,-999.00,-36.4,-999.0,no,yes,no,300234064139650,CALIB,AWI-USIABP,unknown,North
2017-03-25T07:00:28Z,1490425229,2017,7,0,84.292,84.292,83.7476,-52.0288,-999.00,-37.2,-999.0,no,yes,no,300234064139650,CALIB,AWI-USIABP,unknown,North
2017-03-25T07:59:31Z,1490428771,2017,8,0,84.333,84.333,83.7476,-52.0288,-999.00,-36.5,-999.0,no,yes,no,300234064139650,CALIB,AWI-USIABP,unknown,North
2017-03-25T09:00:00Z,1490432400,2017,9,0,84.375,84.375,83.7476,-52.0288,-999.00,-36.2,-999.0,no,yes,no,300234064139650,CALIB,AWI-USIABP,unknown,North
2017-03-25T10:00:28Z,1490436029,2017,10,0,84.417,84.417,83.7476,-52.0288,-999.00,-35.3,-999.0,no,yes,no,300234064139650,CALIB,AWI-USIABP,unknown,North
2017-03-25T10:59:31Z,1490439571,2017,11,0,84.458,84.458,83.7476,-52.0288,-999.00,-33.4,-999.0,no,yes,no,300234064139650,CALIB,AWI-USIABP,unknown,North
2017-03-25T12:00:00Z,1490443200,2017,12,0,84.5,84.5,83.7476,-52.0288,-999.00,-32.6,-999.0,no,yes,no,300234064139650,CALIB,AWI-USIABP,unknown,North
2017-03-25T13:00:28Z,1490446829,2017,13,0,84.542,84.542,83.7476,-52.0288,-999.00,-31.9,-999.0,no,yes,no,300234064139650,CALIB,AWI-USIABP,unknown,North
2017-03-25T13:59:31Z,1490450371,2017,14,0,84.583,84.583,83.7476,-52.0288,-999.00,-30.8,-999.0,no,yes,no,300234064139650,CALIB,AWI-USIABP,unknown,North
2017-03-25T15:00:00Z,1490454000,2017,15,0,84.625,84.625,83.7476,-52.0288,-999.00,-31.8,-999.0,no,yes,no,300234064139650,CALIB,AWI-USIABP,unknown,North
2017-03-25T16:00:28Z,1490457629,2017,16,0,84.667,84.667,83.7476,-52.0288,-999.00,-31.6,-999.0,no,yes,no,300234064139650,CALIB,AWI-USIABP,unknown,North
2017-03-25T16:59:31Z,1490461171,2017,17,0,84.708,84.708,83.7476,-52.0288,-999.00,-31.6,-999.0,no,yes,no,300234064139650,CALIB,AWI-USIABP,unknown,North
2017-03-25T18:00:00Z,1490464800,2017,18,0,84.75,84.75,83.7476,-52.0288,-999.00,-31.1,-999.0,no,yes,no,300234064139650,CALIB,AWI-USIABP,unknown,North
2017-03-25T19:00:28Z,1490468429,2017,19,0,84.792,84.792,83.7476,-52.0286,-999.00,-30.3,-999.0,no,yes,no,300234064139650,CALIB,AWI-USIABP,unknown,North
2017-03-25T19:59:31Z,1490471971,2017,20,0,84.833,84.833,83.7476,-52.0288,-999.00,-29.9,-999.0,no,yes,no,300234064139650,CALIB,AWI-USIABP,unknown,North
2017-03-25T21:00:00Z,1490475600,2017,21,0,84.875,84.875,83.7476,-52.0288,-999.00,-29.5,-999.0,no,yes,no,300234064139650,CALIB,AWI-USIABP,unknown,North
2017-03-25T22:00:28Z,1490479229,2017,22,0,84.917,84.917,83.7476,-52.0286,-999.00,-29.9,-999.0,no,yes,no,300234064139650,CALIB,AWI-USIABP,unknown,North
2017-03-25T22:59:31Z,1490482771,2017,23,0,84.958,84.958,83.7476,-52.0286,-999.00,-30.3,-999.0,no,yes,no,300234064139650,CALIB,AWI-USIABP,unknown,North
2017-03-26T00:00:00Z,1490486400,2017,0,0,85.0,85.0,83.7476,-52.0286,-999.00,-30.5,-999.0,no,yes,no,300234064139650,CALIB,AWI-USIABP,unknown,North
2017-03-26T01:00:28Z,1490490029,2017,1,0,85.042,85.042,83.7476,-52.0286,-999.00,-31.0,-999.0,no,yes,no,300234064139650,CALIB,AWI-USIABP,unknown,North
2017-03-26T01:59:31Z,1490493571,2017,2,0,85.083,85.083,83.7476,-52.0286,-999.00,-31.5,-999.0,no,yes,no,300234064139650,CALIB,AWI-USIABP,unknown,North
2017-03-26T03:00:00Z,1490497200,2017,3,0,85.125,85.125,83.7476,-52.0286,-999.00,-31.4,-999.0,no,yes,no,300234064139650,CALIB,AWI-USIABP,unknown,North
2017-03-26T04:00:28Z,1490500829,2017,4,0,85.167,85.167,83.7476,-52.0286,-999.00,-31.5,-999.0,no,yes,no,300234064139650,CALIB,AWI-USIABP,unknown,North
2017-03-26T04:59:31Z,1490504371,2017,5,0,85.208,85.208,83.7476,-52.0288,-999.00,-31.8,-999.0,no,yes,no,300234064139650,CALIB,AWI-USIABP,unknown,North
2017-03-26T06:00:00Z,1490508000,2017,6,0,85.25,85.25,83.7476,-52.0288,-999.00,-32.5,-999.0,no,yes,no,300234064139650,CALIB,AWI-USIABP,unknown,North
2017-03-26T07:00:28Z,1490511629,2017,7,0,85.292,85.292,83.7476,-52.0288,-999.00,-32.9,-999.0,no,yes,no,300234064139650,CALIB,AWI-USIABP,unknown,North
2017-03-26T07:59:31Z,1490515171,2017,8,0,85.333,85.333,83.7476,-52.0288,-999.00,-33.6,-999.0,no,yes,no,300234064139650,CALIB,AWI-USIABP,unknown,North
2017-03-26T09:00:00Z,1490518800,2017,9,0,85.375,85.375,83.7476,-52.0288,-999.00,-33.6,-999.0,no,yes,no,300234064139650,CALIB,AWI-USIABP,unknown,North
2017-03-26T10:00:28Z,1490522429,2017,10,0,85.417,85.417,83.7476,-52.0288,-999.00,-33.0,-999.0,no,yes,no,300234064139650,CALIB,AWI-USIABP,unknown,North
2017-03-26T10:59:31Z,1490525971,2017,11,0,85.458,85.458,83.7476,-52.0288,-999.00,-32.0,-999.0,no,yes,no,300234064139650,CALIB,AWI-USIABP,unknown,North
2017-03-26T12:00:00Z,1490529600,2017,12,0,85.5,85.5,83.7476,-52.0288,-999.00,-31.3,-999.0,no,yes,no,300234064139650,CALIB,AWI-USIABP,unknown,North
2017-03-26T13:00:28Z,1490533229,2017,13,0,85.542,85.542,83.7476,-52.0288,-999.00,-28.9,-999.0,no,yes,no,300234064139650,CALIB,AWI-USIABP,unknown,North
2017-03-26T13:59:31Z,1490536771,2017,14,0,85.583,85.583,83.7476,-52.0288,-999.00,-28.7,-999.0,no,yes,no,300234064139650,CALIB,AWI-USIABP,unknown,North
2017-03-26T15:00:00Z,1490540400,2017,15,0,85.625,85.625,83.7476,-52.0288,-999.00,-28.9,-999.0,no,yes,no,300234064139650,CALIB,AWI-USIABP,unknown,North
2017-03-26T16:00:28Z,1490544029,2017,16,0,85.667,85.667,83.7476,-52.0288,-999.00,-28.4,-999.0,no,yes,no,300234064139650,CALIB,AWI-USIABP,unknown,North
2017-03-26T16:59:31Z,1490547571,2017,17,0,85.708,85.708,83.7476,-52.0288,-999.00,-28.3,-999.0,no,yes,no,300234064139650,CALIB,AWI-USIABP,unknown,North
2017-03-26T18:00:00Z,1490551200,2017,18,0,85.75,85.75,83.7476,-52.0288,-999.00,-27.1,-999.0,no,yes,no,300234064139650,CALIB,AWI-USIABP,unknown,North
2017-03-26T19:00:28Z,1490554829,2017,19,0,85.792,85.792,83.7476,-52.0288,-999.00,-25.9,-999.0,no,yes,no,300234064139650,CALIB,AWI-USIABP,unknown,North
2017-03-26T19:59:31Z,1490558371,2017,20,0,85.833,85.833,83.7476,-52.0286,-999.00,-24.9,-999.0,no,yes,no,300234064139650,CALIB,AWI-USIABP,unknown,North
2017-03-26T21:00:00Z,1490562000,2017,21,0,85.875,85.875,83.7476,-52.0288,-999.00,-25.2,-999.0,no,yes,no,300234064139650,CALIB,AWI-USIABP,unknown,North
2017-03-26T22:00:28Z,1490565629,2017,22,0,85.917,85.917,83.7476,-52.0288,-999.00,-25.3,-999.0,no,yes,no,300234064139650,CALIB,AWI-USIABP,unknown,North
2017-03-26T22:59:31Z,1490569171,2017,23,0,85.958,85.958,83.7476,-52.0286,-999.00,-25.2,-999.0,no,yes,no,300234064139650,CALIB,AWI-USIABP,unknown,North
2017-03-27T00:00:00Z,1490572800,2017,0,0,86.0,86.0,83.7476,-52.0286,-999.00,-26.8,-999.0,no,yes,no,300234064139650,CALIB,AWI-USIABP,unknown,North
2017-03-27T01:00:28Z,1490576429,2017,1,0,86.042,86.042,83.7476,-52.0286,-999.00,-28.0,-999.0,no,yes,no,300234064139650,CALIB,AWI-USIABP,unknown,North
2017-03-27T01:59:31Z,1490579971,2017,2,0,86.083,86.083,83.7476,-52.0288,-999.00,-28.4,-999.0,no,yes,no,300234064139650,CALIB,AWI-USIABP,unknown,North
2017-03-27T03:00:00Z,1490583600,2017,3,0,86.125,86.125,83.7476,-52.0286,-999.00,-28.8,-999.0,no,yes,no,300234064139650,CALIB,AWI-USIABP,unknown,North
2017-03-27T04:00:28Z,1490587229,2017,4,0,86.167,86.167,83.7476,-52.0286,-999.00,-29.0,-999.0,no,yes,no,300234064139650,CALIB,AWI-USIABP,unknown,North
2017-03-27T04:59:31Z,1490590771,2017,5,0,86.208,86.208,83.7476,-52.0286,-999.00,-29.5,-999.0,no,yes,no,300234064139650,CALIB,AWI-USIABP,unknown,North
2017-03-27T06:00:00Z,1490594400,2017,6,0,86.25,86.25,83.7476,-52.0286,-999.00,-29.5,-999.0,no,yes,no,300234064139650,CALIB,AWI-USIABP,unknown,North
2017-03-27T07:00:28Z,1490598029,2017,7,0,86.292,86.292,83.7476,-52.0286,-999.00,-30.2,-999.0,no,yes,no,300234064139650,CALIB,AWI-USIABP,unknown,North
2017-03-27T07:59:31Z,1490601571,2017,8,0,86.333,86.333,83.7476,-52.0286,-999.00,-28.3,-999.0,no,yes,no,300234064139650,CALIB,AWI-USIABP,unknown,North
2017-03-27T09:00:00Z,1490605200,2017,9,0,86.375,86.375,83.7476,-52.0286,-999.00,-26.6,-999.0,no,yes,no,300234064139650,CALIB,AWI-USIABP,unknown,North
2017-03-27T10:00:28Z,1490608829,2017,10,0,86.417,86.417,83.7476,-52.0288,-999.00,-24.3,-999.0,no,yes,no,300234064139650,CALIB,AWI-USIABP,unknown,North
2017-03-27T10:59:31Z,1490612371,2017,11,0,86.458,86.458,83.7476,-52.0288,-999.00,-22.9,-999.0,no,yes,no,300234064139650,CALIB,AWI-USIABP,unknown,North
2017-03-27T12:00:00Z,1490616000,2017,12,0,86.5,86.5,83.7476,-52.0288,-999.00,-21.6,-999.0,no,yes,no,300234064139650,CALIB,AWI-USIABP,unknown,North
2017-03-27T13:00:28Z,1490619629,2017,13,0,86.542,86.542,83.7476,-52.0288,-999.00,-20.4,-999.0,no,yes,no,300234064139650,CALIB,AWI-USIABP,unknown,North
2017-03-27T13:59:31Z,1490623171,2017,14,0,86.583,86.583,83.7476,-52.0288,-999.00,-19.6,-999.0,no,yes,no,300234064139650,CALIB,AWI-USIABP,unknown,North
2017-03-27T15:00:00Z,1490626800,2017,15,0,86.625,86.625,83.7476,-52.0286,-999.00,-18.8,-999.0,no,yes,no,300234064139650,CALIB,AWI-USIABP,unknown,North
2017-03-27T16:00:28Z,1490630429,2017,16,0,86.667,86.667,83.7478,-52.0286,-999.00,-18.6,-999.0,no,yes,no,300234064139650,CALIB,AWI-USIABP,unknown,North
2017-03-27T16:59:31Z,1490633971,2017,17,0,86.708,86.708,83.7478,-52.0286,-999.00,-18.4,-999.0,no,yes,no,300234064139650,CALIB,AWI-USIABP,unknown,North
2017-03-27T18:00:00Z,1490637600,2017,18,0,86.75,86.75,83.7478,-52.0286,-999.00,-19.7,-999.0,no,yes,no,300234064139650,CALIB,AWI-USIABP,unknown,North
2017-03-27T19:00:28Z,1490641229,2017,19,0,86.792,86.792,83.7478,-52.0286,-999.00,-21.0,-999.0,no,yes,no,300234064139650,CALIB,AWI-USIABP,unknown,North
2017-03-27T19:59:31Z,1490644771,2017,20,0,86.833,86.833,83.7476,-52.0286,-999.00,-21.9,-999.0,no,yes,no,300234064139650,CALIB,AWI-USIABP,unknown,North
2017-03-27T21:00:00Z,1490648400,2017,21,0,86.875,86.875,83.7476,-52.0286,-999.00,-22.8,-999.0,no,yes,no,300234064139650,CALIB,AWI-USIABP,unknown,North
2017-03-27T22:00:28Z,1490652029,2017,22,0,86.917,86.917,83.7476,-52.0286,-999.00,-23.4,-999.0,no,yes,no,300234064139650,CALIB,AWI-USIABP,unknown,North
2017-03-27T22:59:31Z,1490655571,2017,23,0,86.958,86.958,83.7476,-52.0286,-999.00,-23.5,-999.0,no,yes,no,300234064139650,CALIB,AWI-USIABP,unknown,North
2017-03-28T00:00:00Z,1490659200,2017,0,0,87.0,87.0,83.7476,-52.0286,-999.00,-24.0,-999.0,no,yes,no,300234064139650,CALIB,AWI-USIABP,unknown,North
2017-03-28T01:00:28Z,1490662829,2017,1,0,87.042,87.042,83.7476,-52.0284,-999.00,-25.5,-999.0,no,yes,no,300234064139650,CALIB,AWI-USIABP,unknown,North
2017-03-28T01:59:31Z,1490666371,2017,2,0,87.083,87.083,83.7476,-52.0286,-999.00,-25.3,-999.0,no,yes,no,300234064139650,CALIB,AWI-USIABP,unknown,North
2017-03-28T03:00:00Z,1490670000,2017,3,0,87.125,87.125,83.7476,-52.0286,-999.00,-25.4,-999.0,no,yes,no,300234064139650,CALIB,AWI-USIABP,unknown,North
2017-03-28T04:00:28Z,1490673629,2017,4,0,87.167,87.167,83.7476,-52.0286,-999.00,-25.7,-999.0,no,yes,no,300234064139650,CALIB,AWI-USIABP,unknown,North
2017-03-28T04:59:31Z,1490677171,2017,5,0,87.208,87.208,83.7476,-52.0286,-999.00,-25.2,-999.0,no,yes,no,300234064139650,CALIB,AWI-USIABP,unknown,North
2017-03-28T06:00:00Z,1490680800,2017,6,0,87.25,87.25,83.7476,-52.0286,-999.00,-26.0,-999.0,no,yes,no,300234064139650,CALIB,AWI-USIABP,unknown,North
2017-03-28T07:00:28Z,1490684429,2017,7,0,87.292,87.292,83.7476,-52.0286,-999.00,-27.3,-999.0,no,yes,no,300234064139650,CALIB,AWI-USIABP,unknown,North
2017-03-28T07:59:31Z,1490687971,2017,8,0,87.333,87.333,83.7476,-52.0286,-999.00,-27.8,-999.0,no,yes,no,300234064139650,CALIB,AWI-USIABP,unknown,North
2017-03-28T09:00:00Z,1490691600,2017,9,0,87.375,87.375,83.7476,-52.0286,-999.00,-28.0,-999.0,no,yes,no,300234064139650,CALIB,AWI-USIABP,unknown,North
2017-03-28T10:00:28Z,1490695229,2017,10,0,87.417,87.417,83.7476,-52.0286,-999.00,-27.4,-999.0,no,yes,no,300234064139650,CALIB,AWI-USIABP,unknown,North
2017-03-28T10:59:31Z,1490698771,2017,11,0,87.458,87.458,83.7476,-52.0286,-999.00,-27.3,-999.0,no,yes,no,300234064139650,CALIB,AWI-USIABP,unknown,North
2017-03-28T12:00:00Z,1490702400,2017,12,0,87.5,87.5,83.7476,-52.0286,-999.00,-26.5,-999.0,no,yes,no,300234064139650,CALIB,AWI-USIABP,unknown,North
2017-03-28T13:00:28Z,1490706029,2017,13,0,87.542,87.542,83.7476,-52.0286,-999.00,-25.4,-999.0,no,yes,no,300234064139650,CALIB,AWI-USIABP,unknown,North
2017-03-28T13:59:31Z,1490709571,2017,14,0,87.583,87.583,83.7476,-52.0288,-999.00,-24.2,-999.0,no,yes,no,300234064139650,CALIB,AWI-USIABP,unknown,North
2017-03-28T15:00:00Z,1490713200,2017,15,0,87.625,87.625,83.7476,-52.0286,-999.00,-24.9,-999.0,no,yes,no,300234064139650,CALIB,AWI-USIABP,unknown,North
2017-03-28T16:00:28Z,1490716829,2017,16,0,87.667,87.667,83.7476,-52.0286,-999.00,-25.6,-999.0,no,yes,no,300234064139650,CALIB,AWI-USIABP,unknown,North
2017-03-28T16:59:31Z,1490720371,2017,17,0,87.708,87.708,83.7476,-52.0286,-999.00,-25.4,-999.0,no,yes,no,300234064139650,CALIB,AWI-USIABP,unknown,North
2017-03-28T18:00:00Z,1490724000,2017,18,0,87.75,87.75,83.7476,-52.0286,-999.00,-25.1,-999.0,no,yes,no,300234064139650,CALIB,AWI-USIABP,unknown,North
2017-03-28T19:00:28Z,1490727629,2017,19,0,87.792,87.792,83.7476,-52.0286,-999.00,-25.7,-999.0,no,yes,no,300234064139650,CALIB,AWI-USIABP,unknown,North
2017-03-28T19:59:31Z,1490731171,2017,20,0,87.833,87.833,83.7476,-52.0286,-999.00,-26.5,-999.0,no,yes,no,300234064139650,CALIB,AWI-USIABP,unknown,North
2017-03-28T21:00:00Z,1490734800,2017,21,0,87.875,87.875,83.7476,-52.0286,-999.00,-27.4,-999.0,no,yes,no,300234064139650,CALIB,AWI-USIABP,unknown,North
2017-03-28T22:00:28Z,1490738429,2017,22,0,87.917,87.917,83.7476,-52.0286,-999.00,-27.7,-999.0,no,yes,no,300234064139650,CALIB,AWI-USIABP,unknown,North
2017-03-28T22:59:31Z,1490741971,2017,23,0,87.958,87.958,83.7476,-52.0286,-999.00,-28.9,-999.0,no,yes,no,300234064139650,CALIB,AWI-USIABP,unknown,North
2017-03-29T00:00:00Z,1490745600,2017,0,0,88.0,88.0,83.7476,-52.0286,-999.00,-29.4,-999.0,no,yes,no,300234064139650,CALIB,AWI-USIABP,unknown,North
2017-03-29T01:00:28Z,1490749229,2017,1,0,88.042,88.042,83.7476,-52.0286,-999.00,-30.1,-999.0,no,yes,no,300234064139650,CALIB,AWI-USIABP,unknown,North
2017-03-29T01:59:31Z,1490752771,2017,2,0,88.083,88.083,83.7476,-52.0286,-999.00,-31.3,-999.0,no,yes,no,300234064139650,CALIB,AWI-USIABP,unknown,North
2017-03-29T03:00:00Z,1490756400,2017,3,0,88.125,88.125,83.7476,-52.0286,-999.00,-31.3,-999.0,no,yes,no,300234064139650,CALIB,AWI-USIABP,unknown,North
2017-03-29T04:00:28Z,1490760029,2017,4,0,88.167,88.167,83.7476,-52.0286,-999.00,-32.2,-999.0,no,yes,no,300234064139650,CALIB,AWI-USIABP,unknown,North
2017-03-29T04:59:31Z,1490763571,2017,5,0,88.208,88.208,83.7476,-52.0286,-999.00,-32.2,-999.0,no,yes,no,300234064139650,CALIB,AWI-USIABP,unknown,North
2017-03-29T06:00:00Z,1490767200,2017,6,0,88.25,88.25,83.7476,-52.0286,-999.00,-32.9,-999.0,no,yes,no,300234064139650,CALIB,AWI-USIABP,unknown,North
2017-03-29T07:00:28Z,1490770829,2017,7,0,88.292,88.292,83.7476,-52.0286,-999.00,-33.4,-999.0,no,yes,no,300234064139650,CALIB,AWI-USIABP,unknown,North
2017-03-29T07:59:31Z,1490774371,2017,8,0,88.333,88.333,83.7476,-52.0286,-999.00,-32.9,-999.0,no,yes,no,300234064139650,CALIB,AWI-USIABP,unknown,North
2017-03-29T09:00:00Z,1490778000,2017,9,0,88.375,88.375,83.7476,-52.0286,-999.00,-33.2,-999.0,no,yes,no,300234064139650,CALIB,AWI-USIABP,unknown,North
2017-03-29T10:00:28Z,1490781629,2017,10,0,88.417,88.417,83.7476,-52.0286,-999.00,-32.5,-999.0,no,yes,no,300234064139650,CALIB,AWI-USIABP,unknown,North
2017-03-29T10:59:31Z,1490785171,2017,11,0,88.458,88.458,83.7476,-52.0286,-999.00,-31.5,-999.0,no,yes,no,300234064139650,CALIB,AWI-USIABP,unknown,North
2017-03-29T12:00:00Z,1490788800,2017,12,0,88.5,88.5,83.7476,-52.0286,-999.00,-30.6,-999.0,no,yes,no,300234064139650,CALIB,AWI-USIABP,unknown,North
2017-03-29T13:00:28Z,1490792429,2017,13,0,88.542,88.542,83.7476,-52.0286,-999.00,-30.0,-999.0,no,yes,no,300234064139650,CALIB,AWI-USIABP,unknown,North
2017-03-29T13:59:31Z,1490795971,2017,14,0,88.583,88.583,83.7476,-52.0286,-999.00,-30.0,-999.0,no,yes,no,300234064139650,CALIB,AWI-USIABP,unknown,North
2017-03-29T15:00:00Z,1490799600,2017,15,0,88.625,88.625,83.7476,-52.0286,-999.00,-29.7,-999.0,no,yes,no,300234064139650,CALIB,AWI-USIABP,unknown,North
2017-03-29T16:00:28Z,1490803229,2017,16,0,88.667,88.667,83.7476,-52.0286,-999.00,-28.9,-999.0,no,yes,no,300234064139650,CALIB,AWI-USIABP,unknown,North
2017-03-29T16:59:31Z,1490806771,2017,17,0,88.708,88.708,83.7476,-52.0286,-999.00,-27.4,-999.0,no,yes,no,300234064139650,CALIB,AWI-USIABP,unknown,North
2017-03-29T18:00:00Z,1490810400,2017,18,0,88.75,88.75,83.7476,-52.0286,-999.00,-26.3,-999.0,no,yes,no,300234064139650,CALIB,AWI-USIABP,unknown,North
2017-03-29T19:00:28Z,1490814029,2017,19,0,88.792,88.792,83.7476,-52.0286,-999.00,-25.3,-999.0,no,yes,no,300234064139650,CALIB,AWI-USIABP,unknown,North
2017-03-29T19:59:31Z,1490817571,2017,20,0,88.833,88.833,83.7476,-52.0284,-999.00,-24.7,-999.0,no,yes,no,300234064139650,CALIB,AWI-USIABP,unknown,North
2017-03-29T21:00:00Z,1490821200,2017,21,0,88.875,88.875,83.7476,-52.0284,-999.00,-24.5,-999.0,no,yes,no,300234064139650,CALIB,AWI-USIABP,unknown,North
2017-03-29T22:00:28Z,1490824829,2017,22,0,88.917,88.917,83.7476,-52.0284,-999.00,-23.8,-999.0,no,yes,no,300234064139650,CALIB,AWI-USIABP,unknown,North
2017-03-29T22:59:31Z,1490828371,2017,23,0,88.958,88.958,83.7476,-52.0284,-999.00,-22.7,-999.0,no,yes,no,300234064139650,CALIB,AWI-USIABP,unknown,North
2017-03-30T00:00:00Z,1490832000,2017,0,0,89.0,89.0,83.7476,-52.0282,-999.00,-21.7,-999.0,no,yes,no,300234064139650,CALIB,AWI-USIABP,unknown,North
2017-03-30T01:00:28Z,1490835629,2017,1,0,89.042,89.042,83.7478,-52.0284,-999.00,-20.9,-999.0,no,yes,no,300234064139650,CALIB,AWI-USIABP,unknown,North
2017-03-30T01:59:31Z,1490839171,2017,2,0,89.083,89.083,83.7476,-52.0284,-999.00,-19.9,-999.0,no,yes,no,300234064139650,CALIB,AWI-USIABP,unknown,North
2017-03-30T03:00:00Z,1490842800,2017,3,0,89.125,89.125,83.7476,-52.0282,-999.00,-19.3,-999.0,no,yes,no,300234064139650,CALIB,AWI-USIABP,unknown,North
2017-03-30T04:00:28Z,1490846429,2017,4,0,89.167,89.167,83.7476,-52.0282,-999.00,-18.9,-999.0,no,yes,no,300234064139650,CALIB,AWI-USIABP,unknown,North
2017-03-30T04:59:31Z,1490849971,2017,5,0,89.208,89.208,83.7476,-52.0282,-999.00,-18.4,-999.0,no,yes,no,300234064139650,CALIB,AWI-USIABP,unknown,North
2017-03-30T06:00:00Z,1490853600,2017,6,0,89.25,89.25,83.7478,-52.0282,-999.00,-18.2,-999.0,no,yes,no,300234064139650,CALIB,AWI-USIABP,unknown,North
2017-03-30T07:00:28Z,1490857229,2017,7,0,89.292,89.292,83.7476,-52.0282,-999.00,-18.2,-999.0,no,yes,no,300234064139650,CALIB,AWI-USIABP,unknown,North
2017-03-30T07:59:31Z,1490860771,2017,8,0,89.333,89.333,83.7476,-52.0282,-999.00,-18.1,-999.0,no,yes,no,300234064139650,CALIB,AWI-USIABP,unknown,North
2017-03-30T09:00:00Z,1490864400,2017,9,0,89.375,89.375,83.7478,-52.0282,-999.00,-18.2,-999.0,no,yes,no,300234064139650,CALIB,AWI-USIABP,unknown,North
2017-03-30T10:00:28Z,1490868029,2017,10,0,89.417,89.417,83.7478,-52.0282,-999.00,-18.4,-999.0,no,yes,no,300234064139650,CALIB,AWI-USIABP,unknown,North
2017-03-30T10:59:31Z,1490871571,2017,11,0,89.458,89.458,83.7478,-52.0282,-999.00,-18.5,-999.0,no,yes,no,300234064139650,CALIB,AWI-USIABP,unknown,North
2017-03-30T12:00:00Z,1490875200,2017,12,0,89.5,89.5,83.7476,-52.0282,-999.00,-18.9,-999.0,no,yes,no,300234064139650,CALIB,AWI-USIABP,unknown,North
2017-03-30T13:00:28Z,1490878829,2017,13,0,89.542,89.542,83.7476,-52.0282,-999.00,-18.9,-999.0,no,yes,no,300234064139650,CALIB,AWI-USIABP,unknown,North
2017-03-30T13:59:31Z,1490882371,2017,14,0,89.583,89.583,83.7476,-52.028,-999.00,-18.9,-999.0,no,yes,no,300234064139650,CALIB,AWI-USIABP,unknown,North
2017-03-30T15:00:00Z,1490886000,2017,15,0,89.625,89.625,83.7476,-52.028,-999.00,-19.1,-999.0,no,yes,no,300234064139650,CALIB,AWI-USIABP,unknown,North
2017-03-30T16:00:28Z,1490889629,2017,16,0,89.667,89.667,83.7478,-52.028,-999.00,-19.3,-999.0,no,yes,no,300234064139650,CALIB,AWI-USIABP,unknown,North
2017-03-30T16:59:31Z,1490893171,2017,17,0,89.708,89.708,83.7478,-52.028,-999.00,-19.4,-999.0,no,yes,no,300234064139650,CALIB,AWI-USIABP,unknown,North
2017-03-30T18:00:00Z,1490896800,2017,18,0,89.75,89.75,83.7478,-52.028,-999.00,-19.3,-999.0,no,yes,no,300234064139650,CALIB,AWI-USIABP,unknown,North
2017-03-30T19:00:28Z,1490900429,2017,19,0,89.792,89.792,83.7478,-52.028,-999.00,-19.4,-999.0,no,yes,no,300234064139650,CALIB,AWI-USIABP,unknown,North
2017-03-30T19:59:31Z,1490903971,2017,20,0,89.833,89.833,83.7478,-52.028,-999.00,-19.7,-999.0,no,yes,no,300234064139650,CALIB,AWI-USIABP,unknown,North
2017-03-30T21:00:00Z,1490907600,2017,21,0,89.875,89.875,83.7476,-52.028,-999.00,-19.9,-999.0,no,yes,no,300234064139650,CALIB,AWI-USIABP,unknown,North
2017-03-30T22:00:28Z,1490911229,2017,22,0,89.917,89.917,83.7476,-52.028,-999.00,-20.3,-999.0,no,yes,no,300234064139650,CALIB,AWI-USIABP,unknown,North
2017-03-30T22:59:31Z,1490914771,2017,23,0,89.958,89.958,83.7478,-52.028,-999.00,-20.4,-999.0,no,yes,no,300234064139650,CALIB,AWI-USIABP,unknown,North
2017-03-31T00:00:00Z,1490918400,2017,0,0,90.0,90.0,83.7478,-52.028,-999.00,-20.5,-999.0,no,yes,no,300234064139650,CALIB,AWI-USIABP,unknown,North
2017-03-31T01:00:28Z,1490922029,2017,1,0,90.042,90.042,83.7478,-52.028,-999.00,-20.5,-999.0,no,yes,no,300234064139650,CALIB,AWI-USIABP,unknown,North
2017-03-31T01:59:31Z,1490925571,2017,2,0,90.083,90.083,83.7478,-52.028,-999.00,-20.6,-999.0,no,yes,no,300234064139650,CALIB,AWI-USIABP,unknown,North
2017-03-31T03:00:00Z,1490929200,2017,3,0,90.125,90.125,83.7478,-52.028,-999.00,-20.8,-999.0,no,yes,no,300234064139650,CALIB,AWI-USIABP,unknown,North
2017-03-31T04:00:28Z,1490932829,2017,4,0,90.167,90.167,83.7476,-52.028,-999.00,-20.8,-999.0,no,yes,no,300234064139650,CALIB,AWI-USIABP,unknown,North
2017-03-31T04:59:31Z,1490936371,2017,5,0,90.208,90.208,83.7476,-52.028,-999.00,-20.8,-999.0,no,yes,no,300234064139650,CALIB,AWI-USIABP,unknown,North
2017-03-31T06:00:00Z,1490940000,2017,6,0,90.25,90.25,83.7478,-52.0282,-999.00,-20.7,-999.0,no,yes,no,300234064139650,CALIB,AWI-USIABP,unknown,North
2017-03-31T07:00:28Z,1490943629,2017,7,0,90.292,90.292,83.7476,-52.028,-999.00,-20.8,-999.0,no,yes,no,300234064139650,CALIB,AWI-USIABP,unknown,North
2017-03-31T07:59:31Z,1490947171,2017,8,0,90.333,90.333,83.7478,-52.0282,-999.00,-21.1,-999.0,no,yes,no,300234064139650,CALIB,AWI-USIABP,unknown,North
2017-03-31T09:00:00Z,1490950800,2017,9,0,90.375,90.375,83.7476,-52.028,-999.00,-21.1,-999.0,no,yes,no,300234064139650,CALIB,AWI-USIABP,unknown,North
2017-03-31T10:00:28Z,1490954429,2017,10,0,90.417,90.417,83.7478,-52.0282,-999.00,-21.2,-999.0,no,yes,no,300234064139650,CALIB,AWI-USIABP,unknown,North
2017-03-31T10:59:31Z,1490957971,2017,11,0,90.458,90.458,83.7478,-52.0282,-999.00,-21.3,-999.0,no,yes,no,300234064139650,CALIB,AWI-USIABP,unknown,North
2017-03-31T12:00:00Z,1490961600,2017,12,0,90.5,90.5,83.7476,-52.0282,-999.00,-21.4,-999.0,no,yes,no,300234064139650,CALIB,AWI-USIABP,unknown,North
2017-03-31T13:00:28Z,1490965229,2017,13,0,90.542,90.542,83.7478,-52.0282,-999.00,-21.1,-999.0,no,yes,no,300234064139650,CALIB,AWI-USIABP,unknown,North